Regional Weather Roundup
Issued by NWS

Home | Current Version | Previous Version | Text Only | Print | Product List | Glossary Off
Versions: 1 2 3 4 5 6 7 8 9 10 11 12 13 14 15 16 17 18 19 20 21 22 23 24 25 26 27 28

000
ASUS45 KPSR 251510
RWRAZ

ARIZONA HOURLY REGIONAL WEATHER ROUNDUP
NATIONAL WEATHER SERVICE PHOENIX AZ
800 AM MST SUN FEB 25 2018

NOTE: FAIR INDICATES FEW OR NO CLOUDS BELOW 12,000 FEET WITH NO
SIGNIFICANT WEATHER AND/OR OBSTRUCTIONS TO VISIBILITY.

AZZ001>003-036-251600-
NORTHWEST ARIZONA

CITY           SKY/WX    TMP DP  RH WIND       PRES   REMARKS
BULLHEAD CITY  CLEAR     46  14  27 NE9       30.29R
KINGMAN        CLEAR     30   5  34 VRB5      30.23R WCI  25
$$

AZZ004>008-015-016-018-251600-
NORTH CENTRAL ARIZONA

CITY           SKY/WX    TMP DP  RH WIND       PRES   REMARKS
GRAND CANYON   MOSUNNY   13  10  88 CALM      30.13R
WILLIAMS       MOSUNNY   12   3  67 CALM      30.10R
PRESCOTT       SUNNY     22  11  62 CALM      30.17R
FLAGSTAFF      MOSUNNY   10   5  80 W3        30.10R
PAYSON         SUNNY     27   9  46 CALM      30.15R
PAGE           SUNNY     32  15  49 NW3       30.17R
$$

AZZ009>014-017-251600-
NORTHEAST ARIZONA

CITY           SKY/WX    TMP DP  RH WIND       PRES   REMARKS
WINSLOW        SUNNY     25  10  53 CALM      30.17R
SAINT JOHNS    SUNNY     27  10  49 W12       30.13R WCI  17
WINDOW ROCK    SUNNY     23  17  78 CALM      30.09R
SHOW LOW       SUNNY     25   7  46 CALM      30.15R
$$

AZZ540-542>544-546-548-251600-
GREATER PHOENIX AREA

CITY           SKY/WX    TMP DP  RH WIND       PRES   REMARKS
PHOENIX        SUNNY     41  20  43 CALM      30.20R
BUCKEYE        SUNNY     37  12  35 N8        30.22R WCI  31
GLENDALE       SUNNY     39  18  41 CALM      30.23R
LUKE AFB       SUNNY     37  19  46 N3        30.20R
DEER VALLEY    SUNNY     39  16  39 SE3       30.19R
SCOTTSDALE     SUNNY     38  21  50 CALM      30.20R
MESA-FALCON    SUNNY     41  16  36 N8        30.21R
MESA-GATEWAY   SUNNY     34  21  60 E6        30.21R WCI  29
CHANDLER       SUNNY     37  23  56 N5        30.21R WCI  34
$$

AZZ539-553-251600-
SOUTHWEST MARICOPA COUNTY AND PINAL COUNTY

CITY           SKY/WX    TMP DP  RH WIND       PRES   REMARKS
CASA GRANDE    NOT AVBL
GILA BEND      FAIR      39  13  34 CALM      30.21R
$$

AZZ503-504-507>509-251600-
SOUTHEAST ARIZONA

CITY           SKY/WX    TMP DP  RH WIND       PRES   REMARKS
TUCSON         SUNNY     36  23  59 S3        30.20R
DAVIS-MONTHAN  SUNNY     33  26  76 S3        30.18R
RYAN FIELD     SUNNY     34  27  75 E3        30.21R
NOGALES        SUNNY     30  21  69 CALM      30.16R
SIERRA VISTA   SUNNY     38  11  33 W8        30.17R WCI  32
DOUGLAS        SUNNY     31  20  63 N8        30.16R WCI  23
SAFFORD        SUNNY     34  22  61 W3        30.16R
$$

AZZ532-251600-
SOUTHWEST ARIZONA

CITY           SKY/WX    TMP DP  RH WIND       PRES   REMARKS
YUMA           CLEAR     44  16  32 NW5       30.23R
$$

CAZ041-043-047-048-061-525>527-560>570-251600-
SOUTHERN CALIFORNIA

CITY           SKY/WX    TMP DP  RH WIND       PRES   REMARKS
DOWNTOWN L.A.  CLEAR     44  33  65 CALM      30.20R
L.A. AIRPORT   PTCLDY    47  32  56 CALM      30.22R
SAN DIEGO      CLEAR     46  27  47 CALM      30.20F
BURBANK        CLEAR     42  32  67 N6        30.20R
ONTARIO        CLEAR     40  28  62 N8        30.18R WCI  34
RIVERSIDE      CLEAR     39  31  72 SE6       30.20R WCI  35
PALM SPRINGS   CLEAR     54  14  20 N7        30.27R
EL CENTRO NAS  CLEAR     39  15  37 W9        30.27R WCI  33
IMPERIAL       CLEAR     39  19  44 SW5       30.25R
BLYTHE         CLEAR     41   9  26 S5        30.25R
NEEDLES        CLEAR     46  10  23 N9        30.27R
$$

NVZ020-UTZ003-251600-
SOUTHERN NEVADA-UTAH

CITY           SKY/WX    TMP DP  RH WIND       PRES   REMARKS
LAS VEGAS      CLEAR     41  10  28 NE15      30.27R
SALT LAKE CITY MOCLDY    27  13  55 SW5       30.19R WCI  22
$$

NMZ009-TXZ055-251600-
NEW MEXICO-WEST TEXAS

CITY           SKY/WX    TMP DP  RH WIND       PRES   REMARKS
ALBUQUERQUE    PTSUNNY   31  11  43 SW12      30.08R WCI  22
EL PASO        SUNNY     39   7  26 SE10      30.08R WCI  32
$$


........................KEY........................
SKY/WX - SKY CONDITION/WEATHER
TMP    - TEMPERATURE IN FAHRENHEIT
DP     - DEW POINT IN FAHRENHEIT
RH     - RELATIVE HUMIDITY IN PERCENT
WIND   - DIRECTION AND SPEED IN MILES PER HOUR (MPH)
VRB    - VARIABLE WIND DIRECTION
PRES   - MEAN SEA LEVEL PRESSURE IN INCHES OF MERCURY
         F - FALLING PRESSURE   R - RISING PRESSURE
         S - STEADY PRESSURE
VSB    - VISIBILITY IN MILES
HX     - HEAT INDEX IN FAHRENHEIT
WCI    - WIND CHILL INDEX IN FAHRENHEIT
TC     - TEMPERATURE IN CELSIUS WHICH IS ALSO KNOWN AS
         TEMPERATURE IN CENTIGRADE
AFB    - AIR FORCE BASE
         LUKE AFB IS LUKE AIR FORCE BASE
         DAVIS-MONTHAN IS DAVIS-MONTHAN AIR FORCE BASE
NAS    - NAVAL AIR STATION
         EL CENTRO NAS IS EL CENTRO NAVAL AIR STATION
N/A    - NOT AVAILABLE





USA.gov is the U.S. government's official web portal to all federal, state and local government web resources and services.